Weather in Gornozavodsk

Russia / Perm Krai     58°22′28″N   58°19′51″E
temp.,
°C
wind,
m/s
gust,
m/s
humid.,
%
clouds,
%
prec.,
mm/h
press.,
hPa
HPBL,
m
25 february, thu
thu2523:00−26n23890 0.0 103022
02:00−27n12900 0.0 103019
05:00−28wnw11910 0.0 103019
08:00−29wnw11961 0.0 103019
11:00−23w12900 0.0 1029223
14:00−18w238685 0.0 1028392
17:00−18w139092 0.0 1027360
20:00−23sw1110090 0.0 102720
26 february, fri
fri2623:00−25s129770 0.0 102820
02:00−26sse119935 0.0 102819
05:00−27se119742 0.0 102819
08:00−28ese119664 0.0 102719
11:00−21se138747 0.0 1026237
14:00−15se247826 0.0 1024502
17:00−14sse258221 0.0 1023628
20:00−20ese229318 0.0 102220
27 february, sat
sat2723:00−22ese22969 0.0 102223
02:00−23e22970 0.0 102033
05:00−24ese24910 0.0 101889
08:00−25e310910 0.0 1017227
11:00−21e511910 0.0 1015336
14:00−17ese7138777 0.0 1013568
17:00−17e7148888 0.0 1013701
20:00−19ese71492100 0.1 1013705
28 february, sun
sun2823:00−20ese61292100 0.3 1013679
02:00−20e61292100 0.1 1012615
05:00−19e61394100 0.6 1007510
08:00−20e61394100 0.3 1008503
11:00−20e61394100 0.6 1009462
14:00−18e61192100 0.3 1010471
17:00−18e51192100 0.4 1011463
20:00−20e51195100 0.3 1013453
1 march, mon
mon123:00−21e41293100 0.4 1015427
02:00−21e499595 0.1 1016390
05:00−22ene399492 0.2 1018334
08:00−25ene239582 0.0 101995
11:00−20ne238944 0.0 1019278
14:00−13nne128273 0.0 1019477
17:00−13nw128587 0.0 1018488
20:00−19w129989 0.0 101820